Orbital Elements at Epoch 2458284.5 (2018-Jun-15.0) TDB
Reference: JPL 1 (heliocentric ecliptic J2000)
Element | Value | Uncertainty (1-sigma) | Units |
e | .4012926845686483 | 0.42339 | |
a | 1.909388343397324 | 0.70473 | au |
q | 1.143164769191328 | 0.394 | au |
i | 15.47308432190039 | 2.0056 | deg |
node | 166.2982601049364 | 53.377 | deg |
peri | 188.7842425114048 | 38.189 | deg |
M | 313.0088010599497 | 55.719 | deg |
tp | 2458410.292240451613 (2018-Oct-18.79224045) | 82.127 | TDB |
period | 963.6954915824551 2.64 | 533.53 1.461 | d yr |
n | .3735619841998585 | 0.20682 | deg/d |
Q | 2.675611917603321 | 0.98753 | au |
|
| | Orbit Determination Parameters
Additional Information
|